This is the latest recevied weather packets stored in our database for station/object EA1CZ-10. If no packets are shown the sender has not sent any weather packets the latest 10 day(s).
| Time | Temp. | Humidity | Pressure | Rain* | Wind** | Luminosity | Snow |
|---|---|---|---|---|---|---|---|
| 1788606604 | 28.33° C | 37% | 1038.1 hPa | - | - | - | - |
| 1788604804 | 27.78° C | 37% | 1038.2 hPa | - | - | - | - |
| 1788603003 | 26.67° C | 38% | 1038.3 hPa | - | - | - | - |
| 1788601203 | 26.11° C | 38% | 1038.4 hPa | - | - | - | - |
| 1788599403 | 25° C | 39% | 1038.3 hPa | - | - | - | - |
| 1788597603 | 22.22° C | 41% | 1038.4 hPa | - | - | - | - |
| 1788595803 | 21.11° C | 41% | 1038.3 hPa | - | - | - | - |
| 1788594003 | 20.56° C | 41% | 1038.4 hPa | - | - | - | - |
| 1788592203 | 20.56° C | 41% | 1038.3 hPa | - | - | - | - |
| 1788590403 | 20° C | 40% | 1038.5 hPa | - | - | - | - |
| 1788588603 | 20° C | 39% | 1038.6 hPa | - | - | - | - |
| 1788586803 | 20.56° C | 39% | 1038.9 hPa | - | - | - | - |
| 1788585002 | 22.22° C | 39% | 1038.6 hPa | - | - | - | - |
| 1788583202 | 22.22° C | 39% | 1038.6 hPa | - | - | - | - |
| 1788581402 | 21.67° C | 39% | 1038.7 hPa | - | - | - | - |
| 1788579601 | 21.67° C | 39% | 1038.7 hPa | - | - | - | - |
| 1788577801 | 21.11° C | 39% | 1038.7 hPa | - | - | - | - |
| 1788576001 | 21.67° C | 39% | 1038.9 hPa | - | - | - | - |
| 1788574201 | 22.22° C | 38% | 1038.8 hPa | - | - | - | - |
| 1788572401 | 21.67° C | 38% | 1038.9 hPa | - | - | - | - |
| 1788570601 | 21.67° C | 38% | 1039 hPa | - | - | - | - |
| 1788568801 | 21.67° C | 38% | 1039.4 hPa | - | - | - | - |
| 1788567001 | 22.22° C | 37% | 1039.8 hPa | - | - | - | - |
| 1788565201 | 22.22° C | 37% | 1039.9 hPa | - | - | - | - |
| 1788563400 | 22.78° C | 37% | 1039.8 hPa | - | - | - | - |
* Rain since midnight (hover to see other rain measurements)
** Current wind speed in m/s (hover to see current wind gust speed)